Preview of NWS' New Version of Forecast
This preview is not operational and should not be used for support decisions.

Regional Weather Roundup (RWR)

Issued by National Weather Service (NWS)

                            
000
ASUS46 KPQR 180110
RWROR 

OREGON REGIONAL WEATHER ROUNDUP
NATIONAL WEATHER SERVICE PORTLAND OR
500 PM PST SUN FEB 17 2019

NOTE: "FAIR" INDICATES FEW OR NO CLOUDS BELOW 12,000 FEET WITH
NO SIGNIFICANT WEATHER AND/OR OBSTRUCTIONS TO VISIBILITY.

ORZ001>013-180200-
NORTHWEST OREGON

  
CITY           SKY/WX    TMP DP  RH WIND       PRES   REMARKS
ASTORIA        PTCLDY    44  33  65 N3        30.24R                  
TILLAMOOK      MOCLDY    45  36  70 W8        30.25R                  
NEWPORT        MOCLDY    45  36  70 N7        30.26R                  
PORTLAND       MOCLDY    43  32  65 CALM      30.24R                  
VANCOUVER WA   CLOUDY    43  31  62 N5        30.24R                  
SCAPPOOSE      PTCLDY    43  32  65 N6        30.24R                  
HILLSBORO      CLOUDY    41  33  73 CALM      30.23R                  
AURORA         MOCLDY    42  32  67 CALM      30.24R                  
MCMINNVILLE    CLEAR     40  33  76 NW5       30.24R                  
SALEM          CLEAR     43  32  65 NW5       30.22S                  
CORVALLIS      PTCLDY    41  35  79 NE6       30.24R                  
EUGENE         PTCLDY    43  33  68 N13       30.22R                  
$$

ORZ021-028-180200-
SOUTHWEST OREGON

  
CITY           SKY/WX    TMP DP  RH WIND       PRES   REMARKS
NORTH BEND     PTCLDY    45  37  73 N15       30.23R                  
BROOKINGS      PTCLDY    44  38  79 NW7       30.15R                  
ROSEBURG       CLEAR     44  32  62 N7        30.18R                  
SEXTON SUMMIT  MOCLDY    26  24  92 N12G20    30.03R FOG     WCI  16  
GRANTS PASS    CLOUDY    43  28  56 VRB5      30.17                   
MEDFORD        CLOUDY    42  23  46 NW10      30.12R                  
$$

ORZ014>016-041-180200-
COLUMBIA GORGE

  
CITY           SKY/WX    TMP DP  RH WIND       PRES   REMARKS
TROUTDALE      CLOUDY    43  33  68 W3        30.24R                  
HOOD RIVER     MOCLDY    37  30  75 W3        30.17R                  
THE DALLES     MOCLDY    34  29  82 E7        30.18R                  
$$

ORZ029>031-041-044-049-050-061>064-502-503-505>511-180200-
EASTERN OREGON

  
CITY           SKY/WX    TMP DP  RH WIND       PRES   REMARKS
MADRAS         NOT AVBL                                               
REDMOND        PTCLDY    36  21  54 N10       30.05S WCI  28          
BEND           MOCLDY    34  19  55 CALM      30.04S                  
PRINEVILLE     MOCLDY    32  21  64 NW7       30.04                   
KLAMATH FALLS  PTCLDY    31  18  58 NW8       29.98R                  
LAKEVIEW       PTCLDY    29  18  63 N12       29.94R WCI  19          
HERMISTON      CLOUDY    35  30  82 W3        30.17R                  
PENDLETON      CLOUDY    31  29  92 NW7       30.13R FOG              
JOHN DAY       CLOUDY    31  26  78 W7        30.01                   
MEACHAM        CLOUDY    24  21  88 CALM      30.01S                  
LA GRANDE      MOCLDY    30  24  78 W16       30.05R WCI  19          
BAKER CITY     PTCLDY    32  24  72 NW17G25   29.98R WCI  21          
BURNS          PTCLDY    28  16  60 NW10      29.96R WCI  19          
ROME             N/A     31  22  69 CALM      29.92R                  
ONTARIO        PTCLDY    41  24  51 NW14      30.00R                  
$$